Flight Track Log - Related Links

Times and Time Zones

All times are in EDT time to prevent confusion due to time zone crossing. See the EJA982 flight status page for this flight to view local times or setup timezone preferences in your user account.

Time Position Orientation Groundspeed Altitude Reporting Facility
EDT Latitude Longitude Course Direction KTS MPH feet Rate Location/Type
Wed 08:14:11 AM 27.3833 -82.5500 138° Southeast 169 194 800  Level Tampa TRACON
Wed 08:14:35 AM 27.3667 -82.5333 138° Southeast 191 220 1,800 2,981 Climbing Tampa TRACON
Wed 08:16:46 AM 27.2847 -82.5417 185° South 133 153 8,500 2,984 Climbing Miami Center
Wed 08:17:46 AM 27.3361 -82.6189 307° West 133 153 11,300 2,200 Climbing Miami Center
Wed 08:18:46 AM 27.3886 -82.7150 302° West 257 296 12,900 1,800 Climbing Miami Center
Wed 08:19:46 AM 27.4131 -82.8286 284° West 326 375 14,900 1,750 Climbing Miami Center
Wed 08:20:46 AM 27.4375 -82.9419 284° West 359 413 16,400 1,450 Climbing Miami Center
Wed 08:21:46 AM 27.4594 -83.0625 282° West 380 437 17,800 1,450 Climbing Miami Center
Wed 08:22:46 AM 27.4814 -83.1806 282° West 392 451 19,300 1,350 Climbing Miami Center
Wed 08:23:46 AM 27.5053 -83.3011 283° West 397 457 20,500 1,200 Climbing Miami Center
Wed 08:24:46 AM 27.5289 -83.4242 282° West 397 457 21,700 1,100 Climbing Miami Center
Wed 08:25:46 AM 27.5544 -83.5497 283° West 397 457 22,700 1,000 Climbing Miami Center
Wed 08:26:46 AM 27.5819 -83.6753 284° West 397 457 23,700 950 Climbing Miami Center
Wed 08:27:46 AM 27.6050 -83.8031 282° West 407 468 24,600 900 Climbing Miami Center
Wed 08:28:46 AM 27.6300 -83.9333 282° West 419 482 25,500 923 Climbing Miami Center
Wed 08:30:22 AM 27.6744 -84.1483 283° West 463 533 27,000 1,000 Climbing Jacksonville Center
Wed 08:31:22 AM 27.7022 -84.2800 283° West 457 526 28,100 950 Climbing Jacksonville Center
Wed 08:32:22 AM 27.7319 -84.4164 284° West 445 512 28,900 850 Climbing Jacksonville Center
Wed 08:33:22 AM 27.7533 -84.5503 280° West 445 512 29,800 800 Climbing Jacksonville Center
Wed 08:34:22 AM 27.7722 -84.6889 279° West 451 519 30,500 1,050 Climbing Jacksonville Center
Wed 08:35:22 AM 27.8033 -84.8492 282° West 457 526 31,900 1,750 Climbing Jacksonville Center
Wed 08:36:22 AM 27.8306 -84.9764 284° West 449 517 34,000 1,750 Climbing Jacksonville Center
Wed 08:37:22 AM 27.8553 -85.1128 282° West 449 517 35,400 1,500 Climbing Jacksonville Center
Wed 08:38:22 AM 27.8825 -85.2381 284° West 437 503 37,000 1,300 Climbing Jacksonville Center
Wed 08:39:22 AM 27.9175 -85.3703 287° West 432 497 38,000 500 Climbing Jacksonville Center
Wed 08:40:22 AM 27.9567 -85.4958 289° West 432 497 38,000  Level Jacksonville Center
Wed 08:41:22 AM 27.9956 -85.6378 287° West 451 519 38,000  Level Jacksonville Center
Wed 08:42:22 AM 28.0386 -85.7636 291° West 451 519 38,000  Level Jacksonville Center
Wed 08:43:22 AM 28.0811 -85.9081 288° West 457 526 38,000  Level Jacksonville Center
Wed 08:44:22 AM 28.1217 -86.0483 288° West 462 532 38,000  Level Jacksonville Center
Wed 08:45:22 AM 28.1564 -86.1647 289° West 467 537 38,000  Level Jacksonville Center
Wed 08:46:22 AM 28.1986 -86.3072 289° West 465 535 38,000  Level Jacksonville Center
Wed 08:47:22 AM 28.2406 -86.4453 289° West 470 541 38,000  Level Jacksonville Center
Wed 08:48:22 AM 28.2767 -86.5761 287° West 463 533 38,000  Level Jacksonville Center
Wed 08:49:22 AM 28.3206 -86.7192 289° West 468 539 38,000  Level Jacksonville Center
Wed 08:50:22 AM 28.3600 -86.8575 288° West 468 539 38,000  Level Jacksonville Center
Wed 08:51:22 AM 28.4036 -87.0008 289° West 474 545 38,000  Level Jacksonville Center
Wed 08:52:22 AM 28.4408 -87.1369 287° West 469 540 38,000  Level Jacksonville Center
Wed 08:52:58 AM 28.4633 -87.2103 289° West 470 541 38,000  Level Houston Center
Wed 08:54:00 AM 28.5114 -87.3803 288° West 472 543 38,000  Level Houston Center
Wed 08:55:02 AM 28.5528 -87.5219 288° West 473 544 38,000  Level Houston Center
Wed 08:56:04 AM 28.5936 -87.6650 288° West 476 548 38,000 145 Level Houston Center
Wed 08:57:06 AM 28.6344 -87.8072 288° West 475 547 38,300 677 Climbing Houston Center
Wed 08:58:08 AM 28.6736 -87.9486 288° West 470 541 39,400 1,122 Climbing Houston Center
Wed 08:59:09 AM 28.7169 -88.1044 288° West 455 524 40,600 1,073 Climbing Houston Center
Wed 09:00:11 AM 28.7539 -88.2372 288° West 444 511 41,600 919 Climbing Houston Center
Wed 09:01:13 AM 28.7908 -88.3683 288° West 438 504 42,500 677 Climbing Houston Center
Wed 09:02:15 AM 28.8264 -88.4947 288° West 424 488 43,000 242 Climbing Houston Center
Wed 09:03:17 AM 28.8614 -88.6239 287° West 426 490 43,000  Level Houston Center
Wed 09:04:18 AM 28.8953 -88.7572 286° West 435 501 43,000  Level Houston Center
Wed 09:05:20 AM 28.9231 -88.8906 283° West 434 499 43,000  Level Houston Center
Wed 09:06:22 AM 28.9569 -89.0528 283° West 437 503 43,000  Level Houston Center
Wed 09:07:24 AM 28.9864 -89.1872 284° West 438 504 43,000  Level Houston Center
Wed 09:08:26 AM 29.0147 -89.3239 283° West 441 507 43,000  Level Houston Center
Wed 09:09:27 AM 29.0428 -89.4617 283° West 445 512 43,000  Level Houston Center
Wed 09:10:29 AM 29.0717 -89.5989 284° West 444 511 43,000  Level Houston Center
Wed 09:11:31 AM 29.1000 -89.7383 283° West 447 514 43,000  Level Houston Center
Wed 09:12:33 AM 29.1272 -89.8744 283° West 440 506 43,000  Level Houston Center
Wed 09:13:35 AM 29.1608 -90.0378 283° West 440 506 43,000  Level Houston Center
Wed 09:14:37 AM 29.1869 -90.1747 282° West 441 507 43,000  Level Houston Center
Wed 09:15:38 AM 29.2094 -90.3128 281° West 442 509 43,000  Level Houston Center
Wed 09:16:40 AM 29.2322 -90.4497 281° West 439 505 43,000  Level Houston Center
Wed 09:17:42 AM 29.2550 -90.5850 281° West 435 501 43,000  Level Houston Center
Wed 09:18:44 AM 29.2778 -90.7222 281° West 437 503 43,000  Level Houston Center
Wed 09:19:46 AM 29.3003 -90.8614 281° West 442 509 43,000  Level Houston Center
Wed 09:20:48 AM 29.3272 -91.0261 281° West 440 506 43,000  Level Houston Center
Wed 09:21:49 AM 29.3500 -91.1656 281° West 444 511 43,000 -49 Level Houston Center
Wed 09:22:51 AM 29.3719 -91.3061 280° West 448 516 42,900  Descending Houston Center
Wed 09:23:53 AM 29.3950 -91.4481 281° West 451 519 43,000 48 Climbing Houston Center
Wed 09:24:55 AM 29.4172 -91.5875 280° West 448 516 43,000 -49 Level Houston Center
Wed 09:25:56 AM 29.4389 -91.7286 280° West 448 516 42,900  Descending Houston Center
Wed 09:26:58 AM 29.4606 -91.8697 280° West 450 518 43,000 48 Climbing Houston Center
Wed 09:28:00 AM 29.4817 -92.0083 280° West 445 512 43,000  Level Houston Center
Wed 09:29:02 AM 29.5089 -92.1731 281° West 440 506 43,000 49 Level Houston Center
Wed 09:30:03 AM 29.5303 -92.3122 280° West 441 507 43,100 341 Climbing Houston Center
Wed 09:31:05 AM 29.5772 -92.4417 293° West 438 504 43,700 581 Climbing Houston Center
Wed 09:32:07 AM 29.6322 -92.5661 297° West 439 505 44,300 581 Climbing Houston Center
Wed 09:33:09 AM 29.6883 -92.6867 298° West 431 496 44,900 341 Climbing Houston Center
Wed 09:34:10 AM 29.7436 -92.8072 298° West 427 491 45,000 49 Climbing Houston Center
Wed 09:35:12 AM 29.8006 -92.9292 298° West 432 497 45,000  Level Houston Center
Wed 09:36:14 AM 29.8669 -93.0789 297° West 436 502 45,000  Level Houston Center
Wed 09:37:16 AM 29.9244 -93.2044 298° West 441 507 45,000  Level Houston Center
Wed 09:38:17 AM 29.9800 -93.3300 297° West 440 506 45,000  Level Houston Center
Wed 09:39:19 AM 30.0369 -93.4558 298° West 441 507 45,000  Level Houston Center
Wed 09:40:21 AM 30.0950 -93.5842 298° West 445 512 45,000  Level Houston Center
Wed 09:41:23 AM 30.1506 -93.7119 297° West 442 509 45,000  Level Houston Center
Wed 09:42:24 AM 30.2086 -93.8392 298° West 444 511 45,000  Level Houston Center
Wed 09:43:26 AM 30.2653 -93.9658 297° West 441 507 45,000  Level Houston Center
Wed 09:44:28 AM 30.3217 -94.0928 297° West 441 507 45,000  Level Houston Center
Wed 09:45:30 AM 30.3894 -94.2447 297° West 442 509 45,000  Level Houston Center
Wed 09:46:32 AM 30.4442 -94.3717 297° West 442 509 45,000  Level Houston Center
Wed 09:47:33 AM 30.4997 -94.4981 297° West 440 506 45,000  Level Houston Center
Wed 09:48:35 AM 30.5531 -94.6233 296° West 433 498 45,000  Level Houston Center
Wed 09:49:37 AM 30.6089 -94.7533 297° West 441 507 45,000  Level Houston Center
Wed 09:50:39 AM 30.6647 -94.8842 296° West 446 513 45,000  Level Houston Center
Wed 09:51:41 AM 30.7211 -95.0139 297° West 447 514 45,000  Level Houston Center
Wed 09:52:42 AM 30.7772 -95.1425 297° West 444 511 45,000  Level Houston Center
Wed 09:53:44 AM 30.8422 -95.2972 296° West 442 509 45,000  Level Houston Center
Wed 09:54:46 AM 30.8986 -95.4264 297° West 444 511 45,000  Level Houston Center
Wed 09:55:48 AM 30.9522 -95.5542 296° West 440 506 45,000  Level Houston Center
Wed 09:56:49 AM 31.0072 -95.6831 296° West 441 507 45,000  Level Houston Center
Wed 09:57:51 AM 31.0631 -95.8117 297° West 443 510 45,000  Level Houston Center
Wed 09:58:53 AM 31.1172 -95.9406 296° West 442 509 45,000  Level Houston Center
Wed 09:59:55 AM 31.1775 -96.0836 296° West 441 507 45,000  Level Houston Center
Wed 10:00:56 AM 31.2306 -96.2142 295° West 442 509 45,000  Level Houston Center
Wed 10:01:58 AM 31.2856 -96.3442 296° West 443 510 45,000  Level Houston Center
Wed 10:03:00 AM 31.3397 -96.4747 296° West 443 510 45,000  Level Houston Center
Wed 10:04:02 AM 31.3936 -96.6061 296° West 445 512 45,000  Level Houston Center
Wed 10:05:04 AM 31.4469 -96.7378 295° West 447 514 45,000  Level Houston Center
Wed 10:06:06 AM 31.5011 -96.8692 296° West 447 514 45,000  Level Houston Center
Wed 10:07:07 AM 31.5650 -97.0239 296° West 449 517 45,000  Level Houston Center
Wed 10:08:09 AM 31.6186 -97.1578 295° West 450 518 45,000  Level Houston Center
Wed 10:08:45 AM 31.6475 -97.2278 296° West 447 514 45,000  Level Fort Worth Center
Wed 10:09:44 AM 31.7289 -97.3475 309° West 453 521 45,000  Level Fort Worth Center
Wed 10:10:44 AM 31.8186 -97.4525 315° West 458 527 45,000  Level Fort Worth Center
Wed 10:11:44 AM 31.9022 -97.5456 317° Northwest 458 527 45,000  Level Fort Worth Center
Wed 10:12:44 AM 31.9958 -97.6658 313° West 454 522 45,000  Level Fort Worth Center
Wed 10:13:44 AM 32.0958 -97.7811 316° Northwest 454 522 45,000  Level Fort Worth Center
Wed 10:14:44 AM 32.1792 -97.8797 315° West 454 522 45,000  Level Fort Worth Center
Wed 10:15:44 AM 32.2767 -97.9958 315° West 454 522 45,000  Level Fort Worth Center
Wed 10:16:44 AM 32.3556 -98.0922 314° West 459 528 45,000  Level Fort Worth Center
Wed 10:17:44 AM 32.4550 -98.2086 315° West 459 528 45,000  Level Fort Worth Center
Wed 10:18:44 AM 32.5358 -98.3031 315° West 459 528 45,000  Level Fort Worth Center
Wed 10:19:44 AM 32.6331 -98.4200 315° West 459 528 45,000  Level Fort Worth Center
Wed 10:20:44 AM 32.7117 -98.5147 315° West 459 528 45,000  Level Fort Worth Center
Wed 10:21:44 AM 32.8025 -98.6194 316° Northwest 459 528 45,000  Level Fort Worth Center
Wed 10:22:44 AM 32.8892 -98.7272 314° West 459 528 45,000  Level Fort Worth Center
Wed 10:23:44 AM 32.9778 -98.8350 314° West 459 528 45,000  Level Fort Worth Center
Wed 10:24:44 AM 33.0642 -98.9403 314° West 459 528 45,000  Level Fort Worth Center
Wed 10:25:44 AM 33.1669 -99.0611 315° West 459 528 45,000  Level Fort Worth Center
Wed 10:26:44 AM 33.2553 -99.1722 314° West 459 528 45,000  Level Fort Worth Center
Wed 10:27:44 AM 33.3456 -99.2808 315° West 459 528 45,000  Level Fort Worth Center
Wed 10:28:44 AM 33.4336 -99.3897 314° West 459 528 45,000  Level Fort Worth Center
Wed 10:29:45 AM 33.5319 -99.4917 319° Northwest 464 534 45,000  Level Fort Worth Center
Wed 10:30:44 AM 33.6325 -99.5939 320° Northwest 464 534 45,000  Level Fort Worth Center
Wed 10:31:44 AM 33.7308 -99.6961 319° Northwest 469 540 45,000  Level Fort Worth Center
Wed 10:32:44 AM 33.8314 -99.7964 320° Northwest 469 540 45,000  Level Fort Worth Center
Wed 10:33:44 AM 33.9294 -99.8992 319° Northwest 469 540 45,000  Level Fort Worth Center
Wed 10:34:44 AM 34.0297 -100.0047 319° Northwest 474 545 45,000  Level Fort Worth Center
Wed 10:35:44 AM 34.1297 -100.1056 320° Northwest 474 545 45,000  Level Fort Worth Center
Wed 10:36:45 AM 34.2275 -100.2117 318° Northwest 474 545 45,000  Level Fort Worth Center
Wed 10:39:12 AM 34.4603 -100.4506 320° Northwest 480 552 45,000  Level Albuquerque Center
Wed 10:40:14 AM 34.5808 -100.5764 319° Northwest 480 552 45,000  Level Albuquerque Center
Wed 10:41:16 AM 34.6806 -100.6819 319° Northwest 476 548 45,000  Level Albuquerque Center
Wed 10:42:17 AM 34.7800 -100.7878 319° Northwest 477 549 45,000  Level Albuquerque Center
Wed 10:43:19 AM 34.8789 -100.8931 319° Northwest 474 545 45,000  Level Albuquerque Center
Wed 10:44:21 AM 34.9775 -100.9978 319° Northwest 473 544 45,000  Level Albuquerque Center
Wed 10:45:23 AM 35.0761 -101.1025 319° Northwest 472 543 45,000  Level Albuquerque Center
Wed 10:46:25 AM 35.1933 -101.2278 319° Northwest 470 541 45,000  Level Albuquerque Center
Wed 10:47:27 AM 35.2892 -101.3314 319° Northwest 473 544 45,000  Level Albuquerque Center
Wed 10:48:29 AM 35.3883 -101.4375 319° Northwest 473 544 45,000  Level Albuquerque Center
Wed 10:49:31 AM 35.4864 -101.5436 319° Northwest 469 540 45,000  Level Albuquerque Center
Wed 10:50:33 AM 35.5781 -101.6456 318° Northwest 467 537 45,000  Level Albuquerque Center
Wed 10:51:35 AM 35.6944 -101.7722 319° Northwest 469 540 45,000  Level Albuquerque Center
Wed 10:52:37 AM 35.7897 -101.8775 318° Northwest 464 534 45,000  Level Albuquerque Center
Wed 10:53:39 AM 35.8875 -101.9842 319° Northwest 467 537 45,000  Level Albuquerque Center
Wed 10:54:41 AM 35.9833 -102.0906 318° Northwest 467 537 45,000  Level Albuquerque Center
Wed 10:55:43 AM 36.0786 -102.1964 318° Northwest 463 533 45,000  Level Albuquerque Center
Wed 10:56:45 AM 36.1939 -102.3239 318° Northwest 464 534 45,000  Level Albuquerque Center
Wed 10:57:47 AM 36.2897 -102.4306 318° Northwest 463 533 45,000  Level Albuquerque Center
Wed 10:58:49 AM 36.3856 -102.5369 318° Northwest 464 534 45,000  Level Albuquerque Center
Wed 10:59:52 AM 36.4817 -102.6458 318° Northwest 466 536 45,000  Level Albuquerque Center
Wed 11:00:54 AM 36.5781 -102.7531 318° Northwest 466 536 45,000  Level Albuquerque Center
Wed 11:01:56 AM 36.6908 -102.8842 317° Northwest 469 540 45,000  Level Albuquerque Center
Wed 11:02:58 AM 36.7836 -102.9864 319° Northwest 466 536 45,000  Level Albuquerque Center
Wed 11:04:00 AM 36.8897 -103.1089 317° Northwest 465 535 45,000  Level Albuquerque Center
Wed 11:05:02 AM 36.9822 -103.2131 318° Northwest 466 536 45,000  Level Albuquerque Center
Wed 11:06:04 AM 37.0742 -103.3189 317° Northwest 468 539 45,000  Level Albuquerque Center
Wed 11:07:06 AM 37.1808 -103.4436 317° Northwest 469 540 45,000  Level Albuquerque Center
Wed 11:08:08 AM 37.2739 -103.5500 318° Northwest 471 542 45,000  Level Albuquerque Center
Wed 11:08:57 AM 37.3667 -103.6561 318° Northwest 474 545 45,000  Level Denver Center
Wed 11:09:59 AM 37.4597 -103.7647 317° Northwest 476 548 45,000  Level Denver Center
Wed 11:11:01 AM 37.5678 -103.8892 318° Northwest 477 549 45,000  Level Denver Center
Wed 11:12:03 AM 37.6592 -103.9961 317° Northwest 485 558 45,000  Level Denver Center
Wed 11:13:05 AM 37.7642 -104.1225 316° Northwest 475 547 45,000  Level Denver Center
Wed 11:14:07 AM 37.8572 -104.2322 317° Northwest 478 550 45,000  Level Denver Center
Wed 11:15:09 AM 37.9650 -104.3603 317° Northwest 476 548 45,000  Level Denver Center
Wed 11:16:11 AM 38.0583 -104.4722 317° Northwest 482 555 45,000  Level Denver Center
Wed 11:17:13 AM 38.1683 -104.6025 317° Northwest 485 558 45,000  Level Denver Center
Wed 11:18:15 AM 38.2633 -104.7164 317° Northwest 488 562 45,000  Level Denver Center
Wed 11:19:18 AM 38.3744 -104.8508 317° Northwest 493 567 45,000  Level Denver Center
Wed 11:20:20 AM 38.4692 -104.9650 317° Northwest 491 565 45,000  Level Denver Center
Wed 11:21:22 AM 38.5803 -105.0994 317° Northwest 491 565 45,000  Level Denver Center
Wed 11:22:24 AM 38.6744 -105.2156 316° Northwest 489 563 45,000  Level Denver Center
Wed 11:23:26 AM 38.7683 -105.3308 316° Northwest 489 563 45,000  Level Denver Center
Wed 11:24:28 AM 38.8789 -105.4633 317° Northwest 488 562 45,000  Level Denver Center
Wed 11:25:30 AM 38.9708 -105.5772 316° Northwest 481 554 45,000  Level Denver Center
Wed 11:26:32 AM 39.0786 -105.7128 316° Northwest 484 557 45,000  Level Denver Center
Wed 11:27:34 AM 39.1697 -105.8278 316° Northwest 482 555 45,000  Level Denver Center
Wed 11:28:36 AM 39.2658 -105.9478 316° Northwest 481 554 45,000  Level Denver Center
Wed 11:29:38 AM 39.3611 -106.0681 316° Northwest 480 552 45,000  Level Denver Center
Wed 11:30:40 AM 39.4778 -106.2150 316° Northwest 488 562 45,000  Level Denver Center
Wed 11:31:42 AM 39.5744 -106.3367 316° Northwest 489 563 45,000  Level Denver Center
Wed 11:32:44 AM 39.6700 -106.4575 316° Northwest 485 558 45,000  Level Denver Center
Wed 11:33:46 AM 39.7650 -106.5789 316° Northwest 485 558 45,000  Level Denver Center
Wed 11:34:48 AM 39.8600 -106.7017 315° West 486 559 45,000  Level Denver Center
Wed 11:35:50 AM 39.9719 -106.8444 316° Northwest 483 556 45,000  Level Denver Center
Wed 11:36:52 AM 40.0631 -106.9633 315° West 485 558 45,000  Level Denver Center
Wed 11:37:54 AM 40.1706 -107.1019 315° West 487 560 45,000  Level Denver Center
Wed 11:38:56 AM 40.2617 -107.2222 315° West 488 562 45,000  Level Denver Center
Wed 11:39:58 AM 40.3692 -107.3636 315° West 491 565 45,000  Level Denver Center
Wed 11:41:00 AM 40.4614 -107.4850 315° West 492 566 45,000  Level Denver Center
Wed 11:42:02 AM 40.5697 -107.6289 315° West 496 571 45,000  Level Denver Center
Wed 11:43:04 AM 40.6633 -107.7517 315° West 498 573 45,000  Level Denver Center
Wed 11:44:06 AM 40.7631 -107.8844 315° West 497 572 45,000  Level Denver Center
Wed 11:45:09 AM 40.8722 -108.0306 315° West 501 577 45,000  Level Denver Center
Wed 11:46:11 AM 40.9650 -108.1581 314° West 503 579 45,000  Level Denver Center
Wed 11:46:35 AM 41.0125 -108.2197 316° Northwest 502 578 45,000  Level Salt Lake Center
Wed 11:47:37 AM 41.1228 -108.3250 324° Northwest 512 589 45,000  Level Salt Lake Center
Wed 11:48:39 AM 41.2528 -108.4442 325° Northwest 511 588 45,000  Level Salt Lake Center
Wed 11:49:41 AM 41.3633 -108.5478 325° Northwest 511 588 45,000  Level Salt Lake Center
Wed 11:50:43 AM 41.4917 -108.6678 325° Northwest 510 587 45,000  Level Salt Lake Center
Wed 11:51:45 AM 41.6028 -108.7728 325° Northwest 515 593 45,000  Level Salt Lake Center
Wed 11:52:47 AM 41.7319 -108.8950 325° Northwest 515 593 45,000  Level Salt Lake Center
Wed 11:53:49 AM 41.8436 -109.0008 325° Northwest 517 595 45,000  Level Salt Lake Center
Wed 11:54:51 AM 41.9753 -109.1233 325° Northwest 520 598 45,000 -97 Level Salt Lake Center
Wed 11:55:53 AM 42.0875 -109.2292 325° Northwest 517 595 44,800 -1,210 Descending Salt Lake Center
Wed 11:56:55 AM 42.2186 -109.3581 324° Northwest 521 600 42,500 -2,565 Descending Salt Lake Center
Wed 11:57:57 AM 42.3239 -109.4644 323° Northwest 502 578 39,500 -3,000 Descending Salt Lake Center
Wed 11:58:59 AM 42.4428 -109.5783 325° Northwest 472 543 36,300 -2,903 Descending Salt Lake Center
Wed 12:00:01 PM 42.5464 -109.6803 324° Northwest 479 551 33,500 -3,000 Descending Salt Lake Center
Wed 12:01:03 PM 42.6714 -109.8031 324° Northwest 495 570 30,100 -3,097 Descending Salt Lake Center
Wed 12:02:05 PM 42.7789 -109.9106 324° Northwest 495 570 27,100 -2,661 Descending Salt Lake Center
Wed 12:03:07 PM 42.9028 -110.0311 325° Northwest 490 564 24,600 -2,129 Descending Salt Lake Center
Wed 12:04:09 PM 43.0050 -110.1336 324° Northwest 478 550 22,700 -2,032 Descending Salt Lake Center
Wed 12:05:11 PM 43.1217 -110.2497 324° Northwest 465 535 20,400 -2,032 Descending Salt Lake Center
Wed 12:06:13 PM 43.2158 -110.3458 323° Northwest 453 521 18,500 -1,984 Descending Salt Lake Center
Wed 12:07:15 PM 43.3111 -110.4372 325° Northwest 398 458 16,300 -2,032 Descending Salt Lake Center
Wed 12:08:17 PM 43.3856 -110.5236 320° Northwest 354 407 14,300 -1,935 Descending Salt Lake Center
Wed 12:09:19 PM 43.4289 -110.6331 299° West 324 373 12,300 -1,403 Descending Salt Lake Center
Wed 12:10:21 PM 43.4664 -110.7314 298° West 287 330 11,400 -1,500 Descending Salt Lake Center
Wed 12:11:23 PM 43.5100 -110.7792 322° Northwest 232 267 9,200 -1,984 Descending Salt Lake Center
Wed 12:12:25 PM 43.5608 -110.7617 14° North 179 206 7,300 -1,366 Descending Salt Lake Center
Wed 12:13:26 PM 43.5986 -110.7422 20° North 159 183 6,400 -885 Descending Salt Lake Center

Login

Don't have an account? Register now (free) for customized features, flight alerts, and more!